^^
Saratoga-Weather Station Historical Data
Daily Summary for September 16, 2020 Units:  English    Metric   Both
Daily Weekly Monthly Yearly Custom
  High: Low: Average:
Temperature: 86.2 °F 64.6 °F 70.9 °F
Dew Point: 67.3 °F 62.4 °F 64.2 °F
Humidity: 93% 48% 81%
Wind Speed: 6mph 0mph 0.8mph
Wind Gust: 7mph - -
Wind- - ESE
Pressure: 29.9 in 29.8 in -
Precipitation: 0 in    
Historical Graphs
 
 
Tabular Data for September 16, 2020
Time Temperature Dew Point Pressure Wind Wind Speed Wind Gust Humidity Rainfall Rate (Hourly) solar
00:02 71.4 °F 63.5 °F 29.9 in Calm   1 mph 76% 0 in 0 W/m2
00:07 71.2 °F 63.7 °F 29.9 in Calm     77% 0 in 0 W/m2
00:12 71.1 °F 63.5 °F 29.9 in Calm     77% 0 in 0 W/m2
00:17 71.1 °F 63.9 °F 29.9 in SE 0.9 mph 2 mph 78% 0 in 0 W/m2
00:22 70.9 °F 63.7 °F 29.9 in SE 0.9 mph 1 mph 78% 0 in 0 W/m2
00:27 70.9 °F 63.7 °F 29.9 in Calm   1 mph 78% 0 in 0 W/m2
00:32 70.7 °F 63.9 °F 29.9 in ENE 2 mph 2 mph 79% 0 in 0 W/m2
00:37 70.9 °F 64.4 °F 29.9 in Calm   1 mph 80% 0 in 0 W/m2
00:42 71.1 °F 64.2 °F 29.9 in ENE 0.9 mph 1 mph 79% 0 in 0 W/m2
00:47 71.1 °F 64.6 °F 29.9 in NE 0.9 mph 1 mph 80% 0 in 0 W/m2
00:52 71.1 °F 64.6 °F 29.9 in ENE 0.9 mph 1 mph 80% 0 in 0 W/m2
00:57 71.1 °F 64.2 °F 29.9 in SSE 0.9 mph 3 mph 79% 0 in 0 W/m2
01:02 70.9 °F 64.4 °F 29.9 in SSE 0.9 mph 1 mph 80% 0 in 0 W/m2
01:07 70.5 °F 64 °F 29.8 in Calm   2 mph 80% 0 in 0 W/m2
01:12 70.3 °F 64.2 °F 29.8 in Calm     81% 0 in 0 W/m2
01:17 70 °F 63.9 °F 29.8 in Calm     81% 0 in 0 W/m2
01:22 69.8 °F 64 °F 29.8 in Calm     82% 0 in 0 W/m2
01:27 69.6 °F 64.2 °F 29.8 in Calm   1 mph 83% 0 in 0 W/m2
01:32 69.4 °F 64 °F 29.8 in SSE 0.9 mph 1 mph 83% 0 in 0 W/m2
01:37 69.4 °F 64 °F 29.8 in Calm   3 mph 83% 0 in 0 W/m2
01:42 69.8 °F 64.4 °F 29.8 in NW 0.9 mph 1 mph 83% 0 in 0 W/m2
01:47 70.2 °F 64.4 °F 29.8 in Calm   3 mph 82% 0 in 0 W/m2
01:52 70.2 °F 64.4 °F 29.8 in Calm   1 mph 82% 0 in 0 W/m2
01:57 70.2 °F 64.4 °F 29.8 in Calm     82% 0 in 0 W/m2
02:02 69.8 °F 64 °F 29.8 in NW 0.9 mph 1 mph 82% 0 in 0 W/m2
02:07 69.4 °F 64 °F 29.8 in Calm     83% 0 in 0 W/m2
02:12 69.3 °F 63.9 °F 29.8 in Calm   2 mph 83% 0 in 0 W/m2
02:17 69.1 °F 64 °F 29.8 in Calm     84% 0 in 0 W/m2
02:22 68.7 °F 63.7 °F 29.8 in Calm   1 mph 84% 0 in 0 W/m2
02:27 68.7 °F 64 °F 29.8 in Calm     85% 0 in 0 W/m2
02:32 68.5 °F 63.9 °F 29.8 in Calm     85% 0 in 0 W/m2
02:37 68.4 °F 63.7 °F 29.8 in Calm     85% 0 in 0 W/m2
02:42 68.2 °F 63.9 °F 29.8 in Calm     86% 0 in 0 W/m2
02:47 67.8 °F 63.5 °F 29.8 in Calm     86% 0 in 0 W/m2
02:52 67.6 °F 63.7 °F 29.8 in Calm     87% 0 in 0 W/m2
02:57 67.6 °F 63.7 °F 29.8 in Calm   1 mph 87% 0 in 0 W/m2
03:03 67.5 °F 63.5 °F 29.8 in Calm   1 mph 87% 0 in 0 W/m2
03:08 67.5 °F 63.5 °F 29.8 in NW 0.9 mph 2 mph 87% 0 in 0 W/m2
03:13 67.3 °F 63.3 °F 29.8 in Calm     87% 0 in 0 W/m2
03:18 66.9 °F 63.3 °F 29.8 in Calm   2 mph 88% 0 in 0 W/m2
03:23 66.9 °F 63.3 °F 29.8 in Calm     88% 0 in 0 W/m2
03:28 66.7 °F 63.1 °F 29.8 in Calm     88% 0 in 0 W/m2
03:33 66.6 °F 63.1 °F 29.8 in Calm     89% 0 in 0 W/m2
03:38 66.4 °F 63 °F 29.8 in Calm     89% 0 in 0 W/m2
03:43 66.2 °F 62.8 °F 29.8 in Calm     89% 0 in 0 W/m2
03:48 66 °F 63 °F 29.8 in Calm     90% 0 in 0 W/m2
03:53 66 °F 63 °F 29.8 in Calm     90% 0 in 0 W/m2
03:58 65.8 °F 62.8 °F 29.8 in Calm     90% 0 in 0 W/m2
04:03 65.7 °F 62.6 °F 29.8 in Calm     90% 0 in 0 W/m2
04:08 65.7 °F 63 °F 29.8 in Calm     91% 0 in 0 W/m2
04:13 65.5 °F 62.8 °F 29.8 in Calm     91% 0 in 0 W/m2
04:18 65.5 °F 62.8 °F 29.8 in Calm     91% 0 in 0 W/m2
04:23 65.3 °F 62.6 °F 29.8 in Calm     91% 0 in 0 W/m2
04:28 65.1 °F 62.4 °F 29.8 in Calm     91% 0 in 0 W/m2
04:33 65.1 °F 62.8 °F 29.8 in Calm     92% 0 in 0 W/m2
04:38 65.1 °F 62.8 °F 29.8 in Calm     92% 0 in 0 W/m2
04:44 65.1 °F 62.8 °F 29.8 in Calm     92% 0 in 0 W/m2
04:49 65.1 °F 62.8 °F 29.8 in Calm     92% 0 in 0 W/m2
04:54 64.9 °F 62.6 °F 29.8 in Calm     92% 0 in 0 W/m2
04:59 64.9 °F 62.6 °F 29.8 in Calm     92% 0 in 0 W/m2
05:04 64.9 °F 62.6 °F 29.8 in Calm     92% 0 in 0 W/m2
05:09 64.9 °F 62.6 °F 29.8 in Calm     92% 0 in 0 W/m2
05:14 64.9 °F 62.6 °F 29.8 in Calm     92% 0 in 0 W/m2
05:19 64.9 °F 62.6 °F 29.8 in Calm     92% 0 in 0 W/m2
05:25 64.9 °F 62.6 °F 29.8 in Calm     92% 0 in 0 W/m2
05:30 64.8 °F 62.4 °F 29.8 in Calm     92% 0 in 0 W/m2
05:35 64.8 °F 62.4 °F 29.8 in Calm     92% 0 in 0 W/m2
05:40 64.8 °F 62.4 °F 29.8 in Calm     92% 0 in 0 W/m2
05:45 64.8 °F 62.6 °F 29.8 in Calm     93% 0 in 0 W/m2
05:50 64.8 °F 62.6 °F 29.8 in Calm     93% 0 in 0 W/m2
05:55 64.6 °F 62.4 °F 29.8 in Calm     93% 0 in 0 W/m2
06:00 64.6 °F 62.4 °F 29.8 in Calm     93% 0 in 0 W/m2
06:05 64.6 °F 62.4 °F 29.8 in Calm     93% 0 in 0 W/m2
06:10 64.8 °F 62.6 °F 29.8 in Calm     93% 0 in 0 W/m2
06:15 64.8 °F 62.6 °F 29.8 in Calm     93% 0 in 0 W/m2
06:20 64.8 °F 62.6 °F 29.8 in Calm     93% 0 in 0 W/m2
06:25 64.8 °F 62.6 °F 29.8 in Calm     93% 0 in 0 W/m2
06:30 64.9 °F 62.8 °F 29.8 in Calm   1 mph 93% 0 in 0 W/m2
06:35 64.9 °F 62.8 °F 29.8 in NW 0.9 mph 1 mph 93% 0 in 5 W/m2
06:40 64.9 °F 62.8 °F 29.8 in Calm   1 mph 93% 0 in 7 W/m2
06:45 64.9 °F 62.6 °F 29.8 in Calm     92% 0 in 9 W/m2
06:50 64.9 °F 62.6 °F 29.8 in Calm     92% 0 in 11 W/m2
06:55 64.9 °F 62.6 °F 29.8 in Calm     92% 0 in 12 W/m2
07:00 64.9 °F 62.8 °F 29.8 in ENE 0.9 mph 1 mph 93% 0 in 14 W/m2
07:05 64.9 °F 62.6 °F 29.8 in Calm     92% 0 in 14 W/m2
07:10 64.9 °F 62.6 °F 29.8 in Calm   1 mph 92% 0 in 19 W/m2
07:15 65.1 °F 63 °F 29.8 in Calm     93% 0 in 21 W/m2
07:20 65.1 °F 63 °F 29.8 in Calm     93% 0 in 21 W/m2
07:25 65.1 °F 63 °F 29.8 in Calm   1 mph 93% 0 in 21 W/m2
07:30 65.1 °F 63 °F 29.8 in ENE 0.9 mph 1 mph 93% 0 in 21 W/m2
07:35 65.3 °F 63.1 °F 29.8 in Calm     93% 0 in 21 W/m2
07:40 65.5 °F 63.1 °F 29.8 in Calm     92% 0 in 30 W/m2
07:45 65.5 °F 63.1 °F 29.8 in Calm   1 mph 92% 0 in 33 W/m2
07:50 65.7 °F 63.3 °F 29.8 in Calm     92% 0 in 35 W/m2
07:55 65.8 °F 63.5 °F 29.8 in Calm   1 mph 92% 0 in 62 W/m2
08:00 66.2 °F 63.9 °F 29.8 in ENE 0.9 mph 1 mph 92% 0 in 74 W/m2
08:05 66.6 °F 64.2 °F 29.8 in Calm   1 mph 92% 0 in 49 W/m2
08:10 66.9 °F 64.2 °F 29.8 in Calm   2 mph 91% 0 in 44 W/m2
08:15 67.3 °F 64.6 °F 29.8 in Calm   1 mph 91% 0 in 46 W/m2
08:20 67.8 °F 64.8 °F 29.8 in Calm     90% 0 in 49 W/m2
08:25 68.4 °F 64.9 °F 29.8 in Calm   2 mph 89% 0 in 56 W/m2
08:30 68.9 °F 65.1 °F 29.8 in ENE 0.9 mph 1 mph 88% 0 in 60 W/m2
08:35 69.4 °F 65.1 °F 29.8 in Calm     86% 0 in 63 W/m2
08:41 70 °F 65.3 °F 29.8 in ENE 0.9 mph 1 mph 85% 0 in 67 W/m2
08:46 70.2 °F 65.5 °F 29.8 in ENE 0.9 mph 2 mph 85% 0 in 70 W/m2
08:51 70.5 °F 65.5 °F 29.8 in East 2 mph 2 mph 84% 0 in 95 W/m2
08:56 71.1 °F 65.7 °F 29.8 in SE 0.9 mph 2 mph 83% 0 in 237 W/m2
09:01 71.2 °F 65.5 °F 29.8 in NE 2 mph 3 mph 82% 0 in 309 W/m2
09:06 71.8 °F 66 °F 29.8 in Calm   2 mph 82% 0 in 294 W/m2
09:11 72 °F 65.8 °F 29.8 in Calm   3 mph 81% 0 in 323 W/m2
09:16 72.3 °F 65.8 °F 29.8 in NE 4 mph 5 mph 80% 0 in 371 W/m2
09:21 72.7 °F 65.8 °F 29.8 in NE 0.9 mph 1 mph 79% 0 in 385 W/m2
09:26 72.9 °F 66 °F 29.8 in ENE 2.9 mph 5 mph 79% 0 in 378 W/m2
09:31 73 °F 66.2 °F 29.8 in NNE 0.9 mph 3 mph 79% 0 in 299 W/m2
09:36 73.2 °F 66 °F 29.8 in East 2 mph 5 mph 78% 0 in 206 W/m2
09:41 73.6 °F 66.4 °F 29.8 in East 4 mph 5 mph 78% 0 in 149 W/m2
09:46 73.8 °F 66.4 °F 29.8 in Calm   1 mph 78% 0 in 369 W/m2
09:51 74.5 °F 66.4 °F 29.8 in ENE 4 mph 4 mph 76% 0 in 411 W/m2
09:56 74.5 °F 66 °F 29.8 in North 2 mph 4 mph 75% 0 in 380 W/m2
10:01 74.8 °F 66.4 °F 29.8 in East 2.9 mph 3 mph 75% 0 in 450 W/m2
10:06 75.2 °F 66.7 °F 29.8 in Calm   1 mph 75% 0 in 429 W/m2
10:11 75.7 °F 66.9 °F 29.8 in East 4 mph 7 mph 74% 0 in 446 W/m2
10:16 75.7 °F 66.4 °F 29.8 in NE 2.9 mph 4 mph 73% 0 in 457 W/m2
10:21 76.3 °F 66.9 °F 29.8 in ESE 2 mph 3 mph 73% 0 in 494 W/m2
10:26 76.6 °F 66.9 °F 29.8 in ENE 0.9 mph 3 mph 72% 0 in 531 W/m2
10:31 77.2 °F 67.1 °F 29.8 in East 4 mph 7 mph 71% 0 in 538 W/m2
10:36 77.7 °F 67.1 °F 29.8 in Calm   2 mph 70% 0 in 485 W/m2
10:41 78.3 °F 67.3 °F 29.8 in East 2 mph 4 mph 69% 0 in 570 W/m2
10:46 78.6 °F 67.1 °F 29.8 in NW 0.9 mph 4 mph 68% 0 in 571 W/m2
10:51 79 °F 67.1 °F 29.8 in East 4 mph 4 mph 67% 0 in 585 W/m2
10:56 79 °F 67.1 °F 29.8 in ENE 0.9 mph 5 mph 67% 0 in 592 W/m2
11:01 79.3 °F 66.9 °F 29.8 in ESE 0.9 mph 3 mph 66% 0 in 598 W/m2
11:06 79.9 °F 67.1 °F 29.8 in ENE 2 mph 3 mph 65% 0 in 598 W/m2
11:11 80.1 °F 66.7 °F 29.8 in East 2 mph 3 mph 64% 0 in 626 W/m2
11:16 80.2 °F 66.9 °F 29.8 in SSE 2 mph 4 mph 64% 0 in 638 W/m2
11:21 80.4 °F 67.1 °F 29.8 in ENE 4.9 mph 5 mph 64% 0 in 647 W/m2
11:26 80.6 °F 66.9 °F 29.8 in NE 2 mph 3 mph 63% 0 in 659 W/m2
11:31 80.8 °F 66.6 °F 29.8 in East 2 mph 2 mph 62% 0 in 659 W/m2
11:36 81 °F 66.2 °F 29.8 in NNE 2.9 mph 7 mph 61% 0 in 670 W/m2
11:41 81.1 °F 66 °F 29.8 in SSE 0.9 mph 2 mph 60% 0 in 679 W/m2
11:46 81.3 °F 65.7 °F 29.8 in SE 0.9 mph 2 mph 59% 0 in 700 W/m2
11:51 81.9 °F 66.2 °F 29.8 in North 0.9 mph 2 mph 59% 0 in 508 W/m2
11:56 82 °F 65.8 °F 29.8 in North 2 mph 6 mph 58% 0 in 788 W/m2
12:01 82 °F 65.8 °F 29.8 in WNW 2.9 mph 3 mph 58% 0 in 868 W/m2
12:06 82 °F 66.4 °F 29.8 in Calm     59% 0 in 339 W/m2
12:11 82.6 °F 65.8 °F 29.8 in ENE 2.9 mph 3 mph 57% 0 in 367 W/m2
12:16 82.9 °F 66.2 °F 29.8 in Calm   2 mph 57% 0 in 684 W/m2
12:21 83.5 °F 66.2 °F 29.8 in ESE 6 mph 6 mph 56% 0 in 779 W/m2
12:26 84.2 °F 65.7 °F 29.8 in SE 0.9 mph 7 mph 54% 0 in 747 W/m2
12:31 84.2 °F 65.3 °F 29.8 in Calm   2 mph 53% 0 in 782 W/m2
12:36 84.4 °F 65.3 °F 29.8 in East 4.9 mph 5 mph 53% 0 in 817 W/m2
12:41 84.9 °F 64.8 °F 29.8 in East 2.9 mph 7 mph 51% 0 in 766 W/m2
12:47 85.5 °F 64.8 °F 29.8 in NE 4 mph 4 mph 50% 0 in 826 W/m2
12:52 85.3 °F 64 °F 29.8 in ENE 4.9 mph 5 mph 49% 0 in 909 W/m2
12:57 85.6 °F 64.2 °F 29.8 in ENE 2.9 mph 3 mph 49% 0 in 925 W/m2
13:02 86.2 °F 64.2 °F 29.8 in SSW 0.9 mph 4 mph 48% 0 in 914 W/m2
Juneau County Weather
Compliments of Weather Underground - 2 mb